Date String (YYYY-MM-DD hh:mm:ss) UTC,Instrument flags,absolute air pressure of the measurement (hPa),sample flow rate (lpm),inlet stack bypass flow (lpm),air temperature of the measurement (°C),ambient temperature measured by the external sensor (°C),aerosol sample conditioner tube jacket temperature (°C),OPC LED temperature (°C),internal box temperature (°C),relative humidity of the measurement (%),span deviation,mass concentration of particles derived from Lorenz-Mie calculation of OPC scattering (μg/m³),mass concentration of particles derived from Lorenz-Mie calculation of OPC scattering (μg/m³),mass concentration of particles derived from Lorenz-Mie calculation of OPC scattering (μg/m³)
DateTimeUTC,F1_M11,P_M11,Q1_M11,Q2_M11,T1_M11,T2_M11,T3_M11,T4_M11,T5_M11,U1_M11,ZSPAN_M11,X2_M11,X0_M11,X1_M11
2023-09-06 00:00:00,SystemResetWarning,0833.6,5.00,000.00,027.9,026.2,000.0,036.3,029.6,26.8,0001.8,0005.02,0013.25,0004.23
2023-09-06 00:01:00,SystemResetWarning,0833.7,5.00,000.00,028.0,026.5,000.0,036.3,029.7,26.9,0001.3,0005.05,0012.86,0004.23
2023-09-06 00:02:00,SystemResetWarning,0833.7,5.00,000.00,028.0,026.8,000.0,036.3,029.8,26.8,0001.1,0005.03,0013.14,0004.24
2023-09-06 00:03:00,SystemResetWarning,0833.7,5.00,000.00,028.1,027.0,000.0,036.3,029.9,26.4,0000.9,0005.02,0012.79,0004.25
2023-09-06 00:04:00,SystemResetWarning,0833.7,4.99,000.00,028.2,027.2,000.0,036.3,030.0,26.7,0000.7,0005.00,0012.35,0004.26
2023-09-06 00:05:00,SystemResetWarning,0833.7,5.00,000.00,028.2,027.3,000.0,036.4,030.0,26.9,0000.4,0004.99,0012.49,0004.27
2023-09-06 00:06:00,SystemResetWarning,0833.8,5.00,000.00,028.3,027.2,000.0,036.4,030.0,26.9,0000.6,0005.01,0012.32,0004.28
2023-09-06 00:07:00,SystemResetWarning,0833.7,5.00,000.00,028.2,025.6,000.0,036.3,029.5,26.5,0001.0,0005.01,0012.25,0004.30
2023-09-06 00:08:00,SystemResetWarning,0833.7,5.00,000.00,028.0,024.2,000.0,036.3,029.2,26.8,0001.2,0005.00,0012.63,0004.32
2023-09-06 00:09:00,SystemResetWarning,0833.7,5.01,000.00,027.9,024.0,000.0,036.2,029.1,27.3,0001.0,0004.98,0012.15,0004.33
2023-09-06 00:10:00,SystemResetWarning,0833.7,5.01,000.00,027.8,024.4,000.0,036.2,029.1,27.5,0001.1,0005.00,0011.85,0004.35
2023-09-06 00:11:00,SystemResetWarning,0833.7,4.99,000.00,027.8,024.8,000.0,036.2,029.2,27.3,0001.2,0005.02,0011.86,0004.36
2023-09-06 00:12:00,SystemResetWarning,0833.8,5.00,000.00,027.8,025.3,000.0,036.2,029.4,27.3,0001.0,0005.04,0012.14,0004.38
2023-09-06 00:13:00,SystemResetWarning,0833.8,4.99,000.00,027.9,025.7,000.0,036.2,029.5,27.4,0000.6,0005.03,0012.22,0004.39
2023-09-06 00:14:00,SystemResetWarning,0833.8,4.99,000.00,027.9,026.1,000.0,036.2,029.6,27.2,0000.5,0005.06,0013.02,0004.39
2023-09-06 00:15:00,SystemResetWarning,0833.8,5.00,000.00,028.0,026.4,000.0,036.3,029.7,27.0,0000.8,0005.06,0013.33,0004.39
2023-09-06 00:16:00,SystemResetWarning,0833.8,5.01,000.00,028.0,026.6,000.0,036.3,029.8,27.0,0001.4,0005.08,0012.84,0004.40
2023-09-06 00:17:00,SystemResetWarning,0833.8,5.00,000.00,028.1,026.9,000.0,036.3,029.8,26.8,0001.4,0005.09,0012.55,0004.41
2023-09-06 00:18:00,SystemResetWarning,0833.8,5.00,000.00,028.1,027.1,000.0,036.3,029.9,26.5,0001.3,0005.07,0011.87,0004.42
2023-09-06 00:19:00,SystemResetWarning,0833.9,5.00,000.00,028.2,027.3,000.0,036.4,030.0,26.2,0001.0,0005.09,0011.70,0004.42
2023-09-06 00:20:00,SystemResetWarning,0833.9,4.99,000.00,028.3,027.4,000.0,036.4,030.0,26.3,0000.8,0005.13,0013.08,0004.42
2023-09-06 00:21:00,SystemResetWarning,0833.8,4.98,000.00,028.3,026.3,000.0,036.4,029.8,26.4,0000.9,0005.14,0013.52,0004.42
2023-09-06 00:22:00,SystemResetWarning,0833.8,5.01,000.00,028.1,024.6,000.0,036.3,029.3,26.6,0000.9,0005.13,0013.60,0004.42
2023-09-06 00:23:00,SystemResetWarning,0833.8,4.99,000.00,028.0,024.0,000.0,036.3,029.1,26.9,0001.3,0005.15,0013.73,0004.43
2023-09-06 00:24:00,SystemResetWarning,0833.8,5.01,000.00,027.9,024.2,000.0,036.2,029.1,27.1,0002.0,0005.18,0014.55,0004.44
2023-09-06 00:25:00,SystemResetWarning,0833.9,5.01,000.00,027.8,024.6,000.0,036.2,029.2,27.2,0002.0,0005.19,0014.48,0004.45
2023-09-06 00:26:00,SystemResetWarning,0833.9,5.00,000.00,027.8,025.1,000.0,036.2,029.3,27.3,0002.0,0005.20,0013.94,0004.45
2023-09-06 00:27:00,SystemResetWarning,0833.9,5.00,000.00,027.9,025.5,000.0,036.2,029.4,27.3,0001.7,0005.22,0014.10,0004.46
2023-09-06 00:28:00,SystemResetWarning,0833.8,5.00,000.00,027.9,025.9,000.0,036.2,029.5,27.1,0001.8,0005.20,0014.56,0004.46
2023-09-06 00:29:00,SystemResetWarning,0833.9,5.00,000.00,027.9,026.2,000.0,036.2,029.6,27.1,0001.5,0005.21,0014.57,0004.47
2023-09-06 00:30:00,SystemResetWarning,0833.8,5.00,000.00,028.0,026.5,000.0,036.3,029.7,27.1,0001.1,0005.23,0014.91,0004.49
2023-09-06 00:31:00,SystemResetWarning,0833.9,5.00,000.00,028.0,026.8,000.0,036.3,029.8,26.9,0001.2,0005.18,0013.59,0004.48
2023-09-06 00:32:00,SystemResetWarning,0833.9,5.00,000.00,028.1,027.0,000.0,036.3,029.8,26.7,0001.0,0005.17,0014.06,0004.49
2023-09-06 00:33:00,SystemResetWarning,0834.0,5.00,000.00,028.2,027.1,000.0,036.3,029.9,26.7,0001.0,0005.21,0014.48,0004.50
2023-09-06 00:34:00,SystemResetWarning,0833.9,5.00,000.00,028.2,027.3,000.0,036.4,030.0,26.6,0001.2,0005.22,0014.46,0004.50
2023-09-06 00:35:00,SystemResetWarning,0833.9,4.99,000.00,028.3,027.4,000.0,036.4,030.1,26.5,0000.9,0005.20,0013.18,0004.51
2023-09-06 00:36:00,SystemResetWarning,0834.0,4.98,000.00,028.3,027.1,000.0,036.4,030.0,26.5,0001.1,0005.19,0012.59,0004.52
2023-09-06 00:37:00,SystemResetWarning,0833.9,5.00,000.00,028.2,025.4,000.0,036.4,029.4,26.8,0000.9,0005.20,0012.64,0004.55
2023-09-06 00:38:00,SystemResetWarning,0833.9,5.00,000.00,028.0,024.1,000.0,036.3,029.1,27.2,0000.5,0005.23,0012.92,0004.55
2023-09-06 00:39:00,SystemResetWarning,0833.9,5.01,000.00,027.9,024.0,000.0,036.3,029.0,27.4,-000.0,0005.28,0012.52,0004.55
2023-09-06 00:40:00,SystemResetWarning,0834.0,5.01,000.00,027.8,024.4,000.0,036.2,029.1,27.6,0000.2,0005.28,0012.91,0004.55
2023-09-06 00:41:00,SystemResetWarning,0834.0,4.99,000.00,027.8,024.8,000.0,036.2,029.2,27.8,0000.3,0005.29,0013.81,0004.55
2023-09-06 00:42:00,SystemResetWarning,0834.0,5.00,000.00,027.8,025.3,000.0,036.3,029.3,27.7,0000.1,0005.33,0014.29,0004.56
2023-09-06 00:43:00,SystemResetWarning,0834.0,4.99,000.00,027.9,025.7,000.0,036.3,029.5,27.8,0000.5,0005.34,0014.15,0004.57
2023-09-06 00:44:00,SystemResetWarning,0834.0,5.00,000.00,027.9,026.0,000.0,036.3,029.5,27.5,0000.4,0005.36,0013.46,0004.57
2023-09-06 00:45:00,SystemResetWarning,0834.0,5.01,000.00,027.9,026.4,000.0,036.3,029.6,27.7,0000.6,0005.34,0013.59,0004.58
2023-09-06 00:46:00,SystemResetWarning,0834.0,5.00,000.00,028.0,026.6,000.0,036.3,029.7,27.7,0000.4,0005.37,0013.69,0004.59
2023-09-06 00:47:00,SystemResetWarning,0834.0,5.00,000.00,028.1,026.8,000.0,036.3,029.8,27.5,0000.1,0005.34,0014.03,0004.59
2023-09-06 00:48:00,SystemResetWarning,0834.0,5.00,000.00,028.1,027.0,000.0,036.3,029.9,27.5,0000.0,0005.34,0014.37,0004.59
2023-09-06 00:49:00,SystemResetWarning,0834.0,5.01,000.00,028.2,027.2,000.0,036.4,029.9,27.4,0000.3,0005.32,0014.29,0004.60
2023-09-06 00:50:00,SystemResetWarning,0834.0,5.00,000.00,028.2,027.3,000.0,036.4,030.0,27.3,0000.9,0005.25,0014.66,0004.62
2023-09-06 00:51:00,SystemResetWarning,0834.0,5.00,000.00,028.3,027.4,000.0,036.4,030.1,27.0,0001.2,0005.25,0015.97,0004.64
2023-09-06 00:52:00,SystemResetWarning,0834.0,4.98,000.00,028.3,026.3,000.0,036.4,029.7,27.1,0001.1,0005.23,0015.03,0004.65
2023-09-06 00:53:00,SystemResetWarning,0834.0,5.01,000.00,028.2,025.1,000.0,036.4,029.4,27.3,0001.5,0005.19,0013.91,0004.66
2023-09-06 00:54:00,SystemResetWarning,0833.9,5.01,000.00,028.1,025.0,000.0,036.3,029.4,27.4,0001.6,0005.21,0013.98,0004.67
2023-09-06 00:55:00,SystemResetWarning,0834.0,5.00,000.00,028.0,025.2,000.0,036.3,029.4,27.6,0001.8,0005.22,0013.73,0004.69
2023-09-06 00:56:00,SystemResetWarning,0834.0,5.00,000.00,028.0,025.6,000.0,036.4,029.5,27.6,0001.6,0005.24,0013.46,0004.72
2023-09-06 00:57:00,SystemResetWarning,0834.1,5.00,000.00,028.0,025.9,000.0,036.4,029.6,27.6,0001.6,0005.25,0013.24,0004.72
2023-09-06 00:58:00,SystemResetWarning,0834.0,5.00,000.00,028.1,026.2,000.0,036.4,029.7,27.4,0001.9,0005.27,0013.38,0004.73
2023-09-06 00:59:00,SystemResetWarning,0834.1,5.00,000.00,028.1,026.5,000.0,036.4,029.8,27.3,0001.9,0005.29,0013.71,0004.73
